sat.trackr.live / text

‹ back to catalog

STARLINK-33976

NORAD 63858 · 2025-093Y

PAYLOAD ACTIVE UNKNOWN

§ Identity

Operator
Country
US
Launch date
2025-05-07
Launch site
AFETR
Launch vehicle
Mass (kg)
RCS (m²)

Purposes: comms

External: N2YO · Heavens-Above · Gunter

§ Orbital elements

Epoch: 2026-09-20T03:47:18.506976Z

Period
94.27 min
Inclination
43.0041°
Eccentricity
0.0001734
Mean motion
15.27580195 rev/d
Perigee alt
481.9 km
Apogee alt
484.2 km
Semi-major
6,861.2 km
B*
4.2451e-4
RAAN
59.6060°
Arg perigee
273.5050°
Mean anomaly
86.5603°
Rev number
7,755

§ Raw data

STARLINK-339761 63858U 25093Y   26263.15785309  .00011438  00000+0  42451-3 0  99912 63858  43.0041  59.6060 0001734 273.5050  86.5603 15.27580195 77552

JSON: /api/v1/satellites/63858 · /tle

For live sub-satellite position, see the globe view (requires WebGL).

§ Visibility from observer

Set your observer location to see the next 7 days of passes ≥ 10°. The values pass through the URL so the page stays shareable.

No JS? Fill the form by hand. The geolocation button needs JavaScript.